Total_Precipitation_Accumulation
2.44 2.59 2.37 2.13 2.10 2.05 2.36 2.80 3.11 2.82 2.44 2.19 2.02 2.02 2.12 2.23 2.45 2.25 2.29 2.32 2.09 1.86 1.67 1.60 1.54 1.49 1.46 1.50 1.58 1.61 1.64 1.77 1.98 2.22 2.45 2.72 3.01 3.31
2.58 2.64 2.48 2.26 2.34 2.17 2.22 2.54 2.83 3.04 2.72 2.03 2.03 1.97 2.08 2.01 2.35 2.18 2.32 2.33 2.01 1.81 1.62 1.53 1.46 1.40 1.38 1.38 1.40 1.45 1.48 1.47 1.53 1.67 1.82 1.97 2.08 2.24
2.58 2.53 2.49 2.52 2.54 2.38 2.45 2.56 2.64 2.95 2.93 2.29 2.13 2.24 2.35 2.33 2.37 2.25 2.13 2.13 1.97 1.91 1.66 1.50 1.41 1.34 1.31 1.28 1.29 1.27 1.30 1.34 1.34 1.38 1.46 1.54 1.58 1.62
2.86 2.98 2.74 2.73 2.74 2.57 2.58 2.58 2.63 2.87 2.90 2.68 2.45 2.42 2.48 2.43 2.44 2.26 1.91 1.83 1.91 2.08 1.87 1.62 1.47 1.37 1.28 1.23 1.22 1.20 1.22 1.26 1.29 1.27 1.28 1.32 1.40 1.43
2.70 2.94 2.92 3.06 2.82 2.83 2.75 2.64 2.64 2.65 2.83 2.67 2.47 2.61 2.61 2.58 2.51 2.14 1.96 2.04 1.88 2.13 2.05 1.73 1.53 1.42 1.30 1.19 1.13 1.11 1.11 1.13 1.20 1.24 1.24 1.21 1.21 1.24
2.43 2.55 2.66 2.94 2.92 2.96 2.79 2.80 2.92 2.97 3.06 2.92 2.75 2.80 2.90 2.92 2.78 2.42 2.26 2.16 2.04 1.88 2.01 1.80 1.66 1.56 1.42 1.25 1.15 1.09 1.08 1.09 1.12 1.15 1.20 1.23 1.22 1.19
2.40 2.36 2.34 2.57 2.65 2.72 2.48 2.64 2.91 2.96 3.01 2.94 2.85 2.88 2.87 3.02 2.74 2.55 2.39 2.37 2.26 1.99 1.93 1.70 1.62 1.50 1.45 1.43 1.32 1.21 1.13 1.12 1.14 1.15 1.16 1.16 1.19 1.25
2.63 2.56 2.43 2.38 2.37 2.41 2.44 2.52 2.65 2.66 2.70 2.77 2.70 2.72 2.77 2.91 3.07 2.94 2.73 2.52 2.26 1.98 2.00 1.76 1.64 1.57 1.43 1.30 1.41 1.36 1.25 1.17 1.14 1.15 1.19 1.19 1.20 1.22
2.60 2.58 2.30 2.15 2.37 2.27 2.44 2.47 2.28 2.22 2.21 2.32 2.32 2.36 2.80 3.11 3.44 3.11 2.92 2.73 2.43 2.25 2.19 1.84 1.68 1.59 1.43 1.38 1.52 1.35 1.23 1.15 1.11 1.13 1.20 1.22 1.23 1.24
2.23 2.35 2.30 2.19 2.23 2.32 2.25 2.02 1.83 1.83 1.87 1.77 1.77 2.04 2.49 3.06 3.38 3.34 3.31 3.05 2.69 2.29 2.12 1.84 1.63 1.54 1.42 1.45 1.63 1.52 1.35 1.22 1.14 1.11 1.09 1.12 1.16 1.21
1.98 1.98 2.01 1.89 2.04 2.13 2.02 1.80 1.64 1.60 1.65 1.67 1.62 1.81 2.09 2.45 2.88 3.10 2.98 2.80 2.39 1.98 1.86 1.75 1.60 1.63 1.56 1.45 1.46 1.62 1.49 1.35 1.27 1.20 1.16 1.15 1.16 1.21
2.09 2.05 2.11 1.88 1.80 1.76 1.68 1.68 1.50 1.40 1.53 1.52 1.46 1.49 1.60 1.91 2.38 2.47 2.48 2.57 2.31 1.98 1.72 1.75 1.65 1.85 1.79 1.50 1.38 1.41 1.43 1.47 1.44 1.34 1.28 1.28 1.29 1.14
1.86 1.74 1.77 1.80 1.58 1.43 1.41 1.37 1.31 1.37 1.45 1.44 1.35 1.32 1.46 1.62 1.81 2.07 2.28 2.30 2.19 1.84 1.66 1.86 1.75 1.82 1.86 1.61 1.42 1.37 1.36 1.35 1.36 1.41 1.44 1.45 1.43 1.29
1.81 1.80 1.84 1.87 1.61 1.46 1.30 1.18 1.23 1.23 1.23 1.32 1.29 1.23 1.28 1.40 1.66 1.92 2.20 2.29 2.22 2.07 2.05 2.09 1.98 1.91 1.92 1.75 1.54 1.39 1.38 1.39 1.41 1.43 1.47 1.66 1.61 1.56
1.78 2.08 2.10 2.03 1.80 1.51 1.40 1.40 1.35 1.23 1.23 1.26 1.22 1.17 1.23 1.40 1.69 2.02 2.25 2.44 2.41 2.23 2.16 2.10 2.08 2.12 2.17 1.93 1.70 1.59 1.55 1.48 1.43 1.44 1.49 1.52 1.54 1.59
1.76 2.02 2.18 2.16 2.02 1.81 1.72 1.62 1.42 1.35 1.41 1.40 1.42 1.45 1.56 1.70 1.85 1.99 2.21 2.38 2.46 2.30 2.22 2.18 2.19 2.30 2.24 2.08 1.97 1.80 1.68 1.61 1.59 1.64 1.68 1.68 1.65 1.59
1.97 2.14 2.28 2.36 2.36 2.28 2.17 2.08 1.95 1.80 1.64 1.60 1.66 1.65 1.71 1.81 1.85 2.00 2.23 2.35 2.30 2.08 2.08 2.16 2.26 2.35 2.36 2.31 2.10 1.79 1.70 1.61 1.59 1.72 1.79 1.72 1.62 1.56
1.93 2.01 2.24 2.42 2.50 2.57 2.60 2.49 2.27 2.08 1.91 1.88 1.83 1.80 1.83 1.83 1.86 2.01 2.24 2.35 2.23 2.06 2.01 2.05 2.27 2.44 2.45 2.29 2.00 1.77 1.65 1.55 1.49 1.58 1.64 1.61 1.47 1.34
1.76 1.88 2.00 2.11 2.30 2.52 2.59 2.55 2.33 2.21 2.22 2.18 2.09 2.05 2.07 2.07 2.06 2.16 2.35 2.46 2.43 2.29 2.21 2.23 2.31 2.36 2.21 1.86 1.58 1.49 1.49 1.44 1.49 1.49 1.46 1.45 1.38 1.32
1.50 1.68 1.87 2.01 2.16 2.40 2.54 2.57 2.51 2.44 2.44 2.48 2.44 2.37 2.35 2.28 2.18 2.13 2.28 2.40 2.45 2.43 2.38 2.29 2.20 2.19 2.15 1.96 1.78 1.57 1.47 1.54 1.56 1.55 1.49 1.47 1.46 1.53
1.38 1.42 1.51 1.71 1.93 2.16 2.40 2.57 2.58 2.49 2.44 2.48 2.44 2.38 2.37 2.36 2.23 2.13 2.19 2.39 2.46 2.40 2.24 2.04 1.97 2.18 2.36 2.49 2.25 1.79 1.59 1.60 1.68 1.71 1.70 1.77 1.67 1.60
1.47 1.47 1.57 1.74 1.91 2.13 2.33 2.44 2.49 2.50 2.47 2.44 2.38 2.31 2.30 2.28 2.14 2.08 2.11 2.20 2.25 2.25 2.21 2.20 2.39 2.54 2.55 2.52 2.19 1.87 1.74 1.75 1.84 1.93 1.87 1.77 1.67 1.55
1.59 1.60 1.64 1.72 1.88 2.09 2.24 2.36 2.40 2.44 2.46 2.45 2.40 2.31 2.28 2.29 2.24 2.19 2.17 2.19 2.20 2.20 2.34 2.44 2.47 2.56 2.50 2.44 2.36 2.20 2.05 1.98 1.97 1.92 1.73 1.62 1.52 1.44